Regional Weather Roundup
Issued by NWS Newport/Morehead, NC

Current Version | Previous Version | Graphics & Text | Print | Product List | Glossary On
Versions: 1 2 3 4 5 6 7 8 9 10 11 12 13 14 15 16 17 18 19 20 21 22 23 24 25 26 27 28 29 30 31 32 33 34 35 36 37 38 39 40 41 42 43 44 45 46 47 48 49 50
000 ASUS42 KMHX 030613 RWRMHX WEATHER ROUNDUP FOR EASTERN NORTH CAROLINA NATIONAL WEATHER SERVICE NEWPORT/MOREHEAD CITY NC 200 AM EDT FRI JUL 03 2015 NOTE: "FAIR" INDICATES FEW OR NO CLOUDS BELOW 12,000 FEET WITH NO SIGNIFICANT WEATHER AND/OR OBSTRUCTIONS TO VISIBILITY NCZ015>017-031-032-045>047-102-103-030700- NORTH COAST CITY SKY/WX TMP DP RH WIND PRES REMARKS EDENTON LGT RAIN 72 70 93 CALM 29.90F ELIZABETH CITY CLOUDY 72 70 93 NW6 29.89F KITTY HAWK LGT RAIN 72 70 93 CALM 29.89S VSB 3/4 MANTEO DRIZZLE 72 71 96 CALM 29.90S $$ NCZ045>047-081-094-103-104-030700- CENTRAL COAST CITY SKY/WX TMP DP RH WIND PRES REMARKS FRISCO MOCLDY 77 73 87 W9 29.91R SWANQUARTER N/A 77 N/A N/A W7 29.88S $$ NCZ095-097-098-100-101-030700- SOUTHERN COAST CITY SKY/WX TMP DP RH WIND PRES REMARKS BEAUFORT MOCLDY 76 69 79 W12 29.92S CEDAR ISLAND N/A 79 N/A N/A W18 29.94S JACKSONVILLE MOCLDY 73 68 84 W5 29.91F PINEY ISLAND PTCLDY N/A N/A N/A W13 29.91S WILMINGTON CLOUDY 72 69 90 W7 29.92F $$ NCZ011>013-027>030-043-044-078>080-089-090>093-098-030700- COASTAL PLAIN CITY SKY/WX TMP DP RH WIND PRES REMARKS AHOSKIE MOCLDY 69 69 97 CALM 29.92F CLINTON MOCLDY 71 69 96 W3 29.92F ELIZABETHTOWN CLOUDY 71 70 95 W5 29.92F GOLDSBORO PTCLDY 71 69 95 VRB1 29.89F GREENVILLE MOCLDY 72 72 100 CALM 29.93F HAVELOCK PTCLDY 76 66 71 W10 29.92F KENANSVILLE PTCLDY 71 66 85 CALM 29.92F KINSTON PTCLDY 73 69 88 CALM 29.92F NEW BERN PTCLDY 75 66 73 W5 29.93F RICHLANDS PTCLDY 72 64 78 SW3 29.92F ROCKY MOUNT CLOUDY 72 71 97 CALM 29.91F WASHINGTON CLOUDY 73 72 96 CALM 29.92S WHITEVILLE MOCLDY 71 69 93 CALM 29.92S $$ AMZ130-135-150-152-154-156-158-170-250-252-270-ANZ085-086-088-633-658-670-030700- MARINE OBSERVATIONS STATION/POSITION TIME TEMP WIND PRES WAVE SWELL AIR SEA DIR/SP/G HT/PER HT/PER (UTC) (F) (DEG/KT/KT) (MB) (FT/S) (FT/S) CHESAPEAKE LIGHT 0600 74 310/ 5/ 5 1013.3 64 E VA BEACH 0550 76 77 230/ 12/ 16 1011.8 4/ 7 3/ 7 DUCK 0500 70 62 100/ 4/ 5 1012.0 2 E DUCK 0511 70 N/A 2/ 8 OREGON INLET 0500 74 83 290/ 6/ 10 1012.7 13E OREGON INLT 0600 73 N/A 5/ 7 HATTERAS CG 0500 78 78 220/ 11/ 16 1012.5 DIAMOND BUOY 0550 81 83 230/ 27/ 35 1011.8 8/ 7 2/10 CAPE LOOKOUT 0600 78 290/ 17/ 18 1012.8 BEAUFORT LAB 0500 80 81 270/ 6/ 15 1012.7 30 SE NEW RVR IN 0508 79 80 270/ 17/ 23 1013.4 27 SE WRIGHTSVLE 0500 80 280/ 14/ 17 N/A 5 SE WRIGHTSVLE 0508 74 79 310/ 10/ 14 1013.4 225 S CAPE HAT 0550 81 80 230/ 21/ 25 1017.3 6/ 7 2/ 8 41 SE CHARLESTON 0550 77 81 230/ 16/ 17 1014.6 5/ 6 2/ 8 $$

USA.gov is the U.S. government's official web portal to all federal, state and local government web resources and services.